Location: Fort Worth, Tx
(32.7431°N, 97.3695°W)
Time: 11:57:43
(UTC-04:00)

PCSat - Visible Passes

Search period start: 19 September 2020 00:00
Search period end: 29 September 2020 00:00
Orbit: 785 x 794 km, 67.0° (Epoch: 18 September)

Date Brightness Start Highest point End Pass type
(mag) Time Alt. Az. Time Alt. Az. Time Alt. Az.
19 Sep 10.0 06:26:29 10° NNW 06:31:52 61° ENE 06:37:11 10° SE visible
19 Sep 10.3 21:03:21 10° SW 21:08:39 58° WNW 21:14:00 10° NNE visible
20 Sep 10.7 05:55:40 10° N 06:00:48 42° ENE 06:05:55 10° SE visible
20 Sep 10.8 07:39:55 10° WNW 07:43:49 20° WSW 07:47:42 10° SSW visible
20 Sep 12.7 22:20:42 10° WNW 22:21:48 11° NW 22:22:54 10° NW visible
21 Sep 11.3 05:24:56 10° N 05:29:42 30° ENE 05:34:26 10° ESE visible
21 Sep 10.3 07:08:20 10° NW 07:12:58 29° WSW 07:17:35 10° SSW visible
21 Sep 12.4 21:47:30 10° W 21:50:31 15° NW 21:53:34 10° NNW visible
22 Sep 12.1 05:01:16 15° E 05:01:16 15° E 05:02:42 10° ESE visible
22 Sep 9.8 06:42:18 42° WSW 06:42:18 42° WSW 06:47:08 10° S visible
22 Sep 12.2 21:15:20 10° WSW 21:19:19 21° NW 21:23:18 10° N visible
23 Sep 11.7 06:15:49 13° S 06:15:49 13° S 06:16:28 10° SSE visible
23 Sep 11.8 20:43:32 10° WSW 20:48:08 28° WNW 20:52:47 10° N visible
26 Sep 12.8 20:58:42 10° NW 20:59:08 10° NW 20:59:34 10° NW visible
